Location: Clanezzo
(45.7500°N, 9.6000°E)
Time: 02:42:08
(UTC+00:00)

SPROUT - Pass Details

Date: 03 July 2022
Orbit: 588 x 598 km, 97.9° (Epoch: 13 August)

Event Time Altitude Azimuth Distance (km) Brightness Sun altitude
Exits shadow 00:37:34 40° 238° (WSW) 871 ? -19.4°
Maximum altitude 00:38:08 43° 261° (W) 836 ? -19.3°
Drops below altitude 10° 00:42:07 10° 334° (NNW) 1,926 ? -19.1°
Sets 00:44:23 0° 341° (NNW) 2,834 ? -19.0°
